TimeEET,TemperatureF,Dew PointF,Humidity,Sea Level PressureIn,VisibilityMPH,Wind Direction,Wind SpeedMPH,Gust SpeedMPH,PrecipitationIn,Events,Conditions,WindDirDegrees,DateUTC
12:00 AM,64.4,48.2,56,29.98,-9999.0,North,6.9,-,N/A,,Clear,360,2012-12-06 22:00:00
1:00 AM,62.6,48.2,59,29.98,-9999.0,North,8.1,-,N/A,,Clear,350,2012-12-06 23:00:00
2:00 AM,63,47,45,29.98,6,North,8.1,,,,,0,2012-12-07 00:00:00
2:00 AM,62.6,46.4,55,29.98,-9999.0,North,8.1,-,N/A,,Clear,360,2012-12-07 00:00:00
3:00 AM,60.8,46.4,59,29.98,-9999.0,North,6.9,-,N/A,,Clear,10,2012-12-07 01:00:00
4:00 AM,60.8,46.4,59,29.98,-9999.0,North,6.9,-,N/A,,Clear,360,2012-12-07 02:00:00
5:00 AM,60.8,46.4,59,29.98,-9999.0,North,5.8,-,N/A,,Clear,10,2012-12-07 03:00:00
6:00 AM,60.8,46.4,59,30.01,-9999.0,NNW,8.1,-,N/A,,Clear,330,2012-12-07 04:00:00
7:00 AM,60.8,46.4,59,30.01,-9999.0,North,9.2,-,N/A,,Clear,360,2012-12-07 05:00:00
8:00 AM,63,47,46,30.02,6,North,6.9,,,,,0,2012-12-07 06:00:00
8:00 AM,62.6,48.2,59,30.01,-9999.0,North,6.9,-,N/A,,Clear,360,2012-12-07 06:00:00
9:00 AM,68.0,50.0,52,30.01,-9999.0,North,5.8,-,N/A,,Clear,350,2012-12-07 07:00:00
10:00 AM,73.4,53.6,50,30.01,-9999.0,North,4.6,-,N/A,,Clear,360,2012-12-07 08:00:00
11:00 AM,77.0,55.4,47,30.01,-9999.0,NNW,4.6,-,N/A,,Clear,340,2012-12-07 09:00:00
12:00 PM,80.6,55.4,42,29.98,-9999.0,Calm,Calm,-,N/A,,Clear,0,2012-12-07 10:00:00
1:00 PM,84.2,53.6,35,29.95,-9999.0,Calm,Calm,-,N/A,,Clear,0,2012-12-07 11:00:00
2:00 PM,87,54,23,29.91,6,Calm,Calm,,,,,,2012-12-07 12:00:00
2:00 PM,87.8,53.6,31,29.95,-9999.0,Calm,Calm,-,N/A,,Clear,0,2012-12-07 12:00:00
3:00 PM,86.0,51.8,31,29.95,-9999.0,WSW,6.9,-,N/A,,Clear,250,2012-12-07 13:00:00
4:00 PM,86.0,51.8,31,29.95,-9999.0,West,3.5,-,N/A,,Clear,280,2012-12-07 14:00:00
5:00 PM,82.4,53.6,37,29.95,-9999.0,NNW,4.6,-,N/A,,Clear,330,2012-12-07 15:00:00
6:00 PM,80.6,51.8,37,29.95,-9999.0,North,3.5,-,N/A,,Clear,350,2012-12-07 16:00:00
7:00 PM,78.8,51.8,39,29.98,-9999.0,Calm,Calm,-,N/A,,Clear,0,2012-12-07 17:00:00
8:00 PM,76,51,31,29.98,6,NW,6.9,,,,,320,2012-12-07 18:00:00
8:00 PM,75.2,51.8,44,30.01,-9999.0,NW,6.9,-,N/A,,Clear,320,2012-12-07 18:00:00
9:00 PM,73.4,50.0,44,30.01,-9999.0,NW,8.1,-,N/A,,Clear,320,2012-12-07 19:00:00
10:00 PM,71.6,46.4,41,30.01,-9999.0,NW,12.7,-,N/A,,Clear,310,2012-12-07 20:00:00
11:00 PM,69.8,42.8,38,30.01,-9999.0,NW,11.5,-,N/A,,Clear,310,2012-12-07 21:00:00